Tracking 30995 objects as of 7-Jul-2025
HD Live streaming from Space Station
objects crossing your sky now

STARLINK-6157

Track STARLINK-6157 now!
10-day predictions
STARLINK-6157 is classified as:


NORAD ID: 56379
Int'l Code: 2023-061F
Perigee: 565.4 km
Apogee: 567.0 km
Inclination: 43.0 °
Period: 95.8 minutes
Semi major axis: 6937 km
RCS: Unknown
Launch date: May 4, 2023
Source: United States (US)
Launch site: AIR FORCE EASTERN TEST RANGE (AFETR)
Your satellite tracking list
Your tracking list is empty




NASA's NSSDC Master Catalog

Two Line Element Set (TLE):
1 56379U 23061F   25187.11299258  .00001823  00000-0  15001-3 0  9996
2 56379  43.0027  97.2518 0001195 249.0551 111.0163 15.02539243120765
Source of the keplerian elements: AFSPC